[[{"header":{"parameterUnit":"m.s-1","parameterCategory":1,"la1":30.2991,"la2":30.254,"lo1":-89.0895,"lo2":-89.0444,"dy":0.0017,"dx":0.0017,"nx":28,"ny":28,"refTime":"2024-03-12T09:00:00:Z","depth":0,"parameterNumber":2,"parameterNumberName":"U-component_of_WINDS"},"data":[0,0,0,0,0,0,0,0,0,0,0,0,0,0,0,0,0,0,0,0,0,0,0,0,0,0,0,0,0,0,0,0,0,0,0,0,0,0,0,0,0,0,0,0,0,0,0,0,0,0,0,0,0,0,0,0,0,0,0.8721,0.8721,0,0.873,0.873,0.873,0.8733,0.8733,0.8733,0.8733,0.8741,0.8742,0.8742,0,0,0,0,0,0,0,0,0,0,0,0,0,0.8705,0.8705,0.8721,0.8721,0.8721,0.873,0.873,0.873,0.8733,0.8733,0.8733,0.8733,0.8741,0.8742,0.8742,0,0,0,0,0,0,0,0,0,0,0,0,0,0.8713,0.8705,0.8721,0.8724,0.8724,0.873,0.873,0.873,0.8733,0.8733,0.8733,0.8733,0.8741,0.8742,0.8742,0.8745,0,0,0.8743,0.8743,0,0,0,0,0,0,0,0,0.8712,0.8713,0.8723,0.8724,0.8724,0.8731,0.8727,0.8735,0.8734,0.873,0.8733,0.8733,0.8738,0.8738,0.874,0.8745,0.8746,0.8743,0.8743,0.8743,0.8744,0,0,0,0,0,0,0,0.8712,0.8713,0.8724,0.8724,0.8724,0.8724,0.8725,0.8729,0.8734,0.873,0.8731,0.8732,0.8738,0.874,0.874,0.8746,0.8743,0.8743,0.8744,0.8744,0.8752,0.8752,0,0,0,0,0,0,0.8711,0.8712,0.8724,0.8725,0.8718,0.8725,0.8726,0.8729,0.8734,0.8735,0.8732,0.8732,0.8739,0.874,0.8741,0.8744,0.8743,0.8744,0.8744,0.8752,0.8752,0.8752,0,0,0,0,0,0,0.8711,0.8712,0.8724,0.8719,0.872,0.8725,0.8728,0.8729,0.8731,0.8735,0.8736,0.8733,0.8739,0.874,0.8744,0.8744,0.8744,0.8744,0.8752,0.8752,0.8752,0.875,0,0,0,0,0,0,0.871,0.8712,0.8713,0.8719,0.872,0.8727,0.8728,0.8729,0.8731,0.8732,0.8736,0.8737,0.8739,0.8743,0.8744,0.8744,0.8744,0.8752,0.8752,0.8752,0.875,0.875,0.875,0,0,0,0,0,0.8709,0.8712,0.8714,0.8715,0.8723,0.8727,0.8728,0.8731,0.8731,0.8733,0.8735,0.8737,0.8744,0.8743,0.8744,0.8745,0.8752,0.8752,0.8752,0.875,0.875,0.875,0,0,0,0,0,0,0.8707,0.8713,0.8714,0.8719,0.8723,0.8728,0.873,0.8731,0.8734,0.8734,0.8738,0.8739,0.8741,0.8744,0.8743,0.8747,0.8748,0.8748,0.8746,0.8746,0.8746,0.8745,0.8745,0,0,0,0,0,0.8707,0.8711,0.8716,0.872,0.8721,0.8725,0.8727,0.8729,0.8733,0.8734,0.8737,0.874,0.8743,0.8744,0.8747,0.875,0.8751,0.8751,0.8751,0.8751,0.8751,0.8752,0.8752,0.8752,0.8752,0.8752,0,0,0.8707,0.8711,0.8713,0.8719,0.8722,0.8725,0.8726,0.873,0.8732,0.8734,0.8738,0.874,0.8743,0.8746,0.8748,0.8748,0.8751,0.8751,0.8751,0.8751,0.8752,0.8752,0.8752,0.8752,0.8752,0.8752,0,0,0.8709,0.8713,0.8716,0.8718,0.8723,0.8725,0.8726,0.873,0.8732,0.8735,0.8737,0.8739,0.8744,0.8746,0.8748,0.8749,0.875,0.875,0.875,0.875,0.875,0.875,0.875,0.875,0.875,0.875,0.875,0,0.8709,0.8714,0.8717,0.872,0.8722,0.8725,0.8727,0.873,0.8735,0.8736,0.8736,0.8742,0.8744,0.8747,0.8748,0.8749,0.8749,0.875,0.875,0.875,0.875,0.875,0.875,0.875,0.875,0.875,0.875,0,0.8713,0.8716,0.8718,0.8723,0.8725,0.8728,0.8731,0.8732,0.8734,0.8736,0.8739,0.8742,0.8745,0.8746,0.8747,0.8749,0.8749,0.875,0.875,0.875,0.875,0.875,0.875,0.875,0.875,0.875,0,0,0.8714,0.872,0.872,0.8722,0.8726,0.8729,0.8731,0.8734,0.8735,0.8738,0.874,0.8743,0.8744,0.8746,0.8747,0.8748,0.8748,0.8749,0.8749,0.8748,0.8749,0.8748,0.8748,0.8749,0.8749,0.8749,0.8749,0,0.8716,0.8721,0.8723,0.8727,0.8729,0.8731,0.8733,0.8736,0.8737,0.8739,0.8741,0.8744,0.8744,0.8745,0.8746,0.8748,0.8748,0.8748,0.875,0.875,0.8749,0.8748,0.8748,0.8747,0.8749,0.8749,0.8749,0,0.8719,0.8722,0.8726,0.8729,0.873,0.8732,0.8734,0.8736,0.8739,0.874,0.8742,0.8743,0.8745,0.8745,0.8747,0.8747,0.8748,0.8749,0.8749,0.8749,0.8749,0.8748,0.8747,0.8747,0.8749,0.8749,0.8749,0,0.8719,0.8723,0.8726,0.8727,0.8731,0.8732,0.8734,0.8736,0.8738,0.874,0.8741,0.8743,0.8744,0.8745,0.8747,0.8747,0.8748,0.8749,0.8749,0.8749,0.8749,0.8749,0.8748,0.875,0.875,0.875,0.875,0,0.872,0.8723,0.8726,0.8728,0.873,0.8732,0.8734,0.8735,0.8737,0.8739,0.874,0.8742,0.8744,0.8745,0.8746,0.8747,0.8748,0.8749,0.8749,0.8748,0.8748,0.8749,0.8749,0.875,0.875,0.875,0.875,0,0.8721,0.8723,0.8726,0.8729,0.873,0.8731,0.8734,0.8735,0.8736,0.8738,0.8739,0.8741,0.8742,0.8744,0.8746,0.8747,0.8748,0.8748,0.8747,0.8747,0.8747,0.8746,0.8746,0.8746,0.8748,0.8748,0.8748,0,0.8722,0.8723,0.8726,0.8727,0.8729,0.8731,0.8732,0.8734,0.8735,0.8738,0.8738,0.874,0.8741,0.8744,0.8745,0.8746,0.8747,0.8746,0.8747,0.8746,0.8746,0.8746,0.8746,0.8746,0.8746,0.8746,0.8746,0,0.8723,0.8724,0.8726,0.8728,0.8729,0.8731,0.8733,0.8733,0.8736,0.8737,0.8738,0.8739,0.8741,0.8742,0.8744,0.8745,0.8746,0.8746,0.8746,0.8745,0.8744,0.8744,0.8746,0.8746,0.8746,0.8746,0.8746,0.8746,0.8723,0.8724,0.8726,0.8728,0.873,0.8731,0.8732,0.8733,0.8735,0.8737,0.8738,0.8739,0.874,0.8742,0.8743,0.8744,0.8744,0.8744,0.8744,0.8744,0.8744,0.8744,0.8744,0.8744,0.8744,0.8744,0.8744,0,0.8724,0.8725,0.8727,0.8729,0.873,0.8731,0.8733,0.8733,0.8735,0.8736,0.8737,0.8738,0.8739,0.8741,0.8742,0.8742,0.8742,0.8742,0.8742,0.8742,0.8744,0.8743,0.8742,0.8742,0.8742,0.8742,0.8742,0.8742,0.8724,0.8726,0.8727,0.8729,0.873,0.8732,0.8732,0.8733,0.8734,0.8736,0.8737,0.8737,0.8739,0.8739,0.874,0.8741,0.8741,0.874,0.8741,0.8742,0.8742,0.8742,0.8742,0.874,0.874,0.8739,0.8739,0.8739]},{"header":{"parameterUnit":"m.s-1","parameterCategory":1,"la1":30.2991,"la2":30.254,"lo1":-89.0895,"lo2":-89.0444,"dy":0.0017,"dx":0.0017,"nx":28,"ny":28,"refTime":"2024-03-12T09:00:00:Z","depth":0,"parameterNumber":3,"parameterNumberName":"V-component_of_WINDS"},"data":[0,0,0,0,0,0,0,0,0,0,0,0,0,0,0,0,0,0,0,0,0,0,0,0,0,0,0,0,0,0,0,0,0,0,0,0,0,0,0,0,0,0,0,0,0,0,0,0,0,0,0,0,0,0,0,0,0,0,2.088,2.0881,0,2.0895,2.0895,2.0896,2.0847,2.0845,2.0844,2.0843,2.0859,2.086,2.0862,0,0,0,0,0,0,0,0,0,0,0,0,0,2.0809,2.0811,2.088,2.0881,2.0881,2.0895,2.0895,2.0896,2.0847,2.0845,2.0844,2.0842,2.0858,2.086,2.0862,0,0,0,0,0,0,0,0,0,0,0,0,0,2.0834,2.0811,2.088,2.0858,2.0856,2.0895,2.0895,2.0896,2.0848,2.0845,2.0843,2.0841,2.0857,2.086,2.0863,2.0924,0,0,2.0871,2.0872,0,0,0,0,0,0,0,0,2.0832,2.0836,2.0861,2.086,2.0858,2.0867,2.0876,2.0905,2.0848,2.0851,2.0842,2.084,2.0863,2.0865,2.0873,2.0925,2.0925,2.0871,2.0873,2.0874,2.0875,0,0,0,0,0,0,0,2.0831,2.0835,2.0886,2.0862,2.086,2.0847,2.0848,2.0881,2.0869,2.0851,2.0847,2.0849,2.0862,2.0871,2.0873,2.0926,2.0871,2.0874,2.0875,2.0876,2.1025,2.1027,0,0,0,0,0,0,2.0832,2.0834,2.0886,2.0887,2.0839,2.085,2.0852,2.0866,2.0869,2.0867,2.0851,2.0847,2.0867,2.087,2.0874,2.0943,2.0874,2.0877,2.0878,2.1022,2.1025,2.1028,0,0,0,0,0,0,2.0831,2.0837,2.0885,2.086,2.0865,2.0854,2.0871,2.0868,2.0876,2.0869,2.0867,2.0862,2.0865,2.087,2.0911,2.0943,2.0878,2.088,2.102,2.1023,2.1026,2.1084,0,0,0,0,0,0,2.0829,2.0837,2.086,2.086,2.0866,2.0923,2.0873,2.087,2.0881,2.0876,2.0879,2.0878,2.0864,2.0907,2.0914,2.0945,2.0882,2.1017,2.1021,2.1025,2.1079,2.1089,2.1097,0,0,0,0,0,2.0826,2.0877,2.0862,2.0868,2.0896,2.0925,2.0928,2.0911,2.0884,2.0907,2.0902,2.0878,2.0939,2.0912,2.0919,2.0952,2.1015,2.102,2.1025,2.1075,2.1087,2.1097,0,0,0,0,0,0,2.0882,2.0877,2.086,2.0912,2.0919,2.0917,2.0945,2.0925,2.094,2.0935,2.0913,2.0914,2.0959,2.096,2.093,2.101,2.0972,2.0979,2.1007,2.1019,2.1028,2.1026,2.0885,0,0,0,0,0,2.09,2.0925,2.0919,2.0965,2.0969,2.0957,2.0969,2.0955,2.0962,2.0965,2.0963,2.0971,2.0991,2.1005,2.1024,2.1079,2.1078,2.1105,2.1114,2.1122,2.1128,2.1154,2.1165,2.1045,2.1045,2.1045,0,0,2.0939,2.0938,2.0955,2.0976,2.098,2.1005,2.096,2.0989,2.1007,2.0969,2.1007,2.1006,2.1013,2.1061,2.1082,2.1063,2.1161,2.1128,2.1134,2.1136,2.1161,2.1172,2.1182,2.1048,2.1048,2.1047,0,0,2.102,2.1024,2.1061,2.1065,2.1071,2.1062,2.1071,2.1071,2.1069,2.1106,2.1078,2.1099,2.1135,2.114,2.1148,2.1229,2.1206,2.1235,2.1283,2.1309,2.1318,2.1327,2.1354,2.1364,2.1242,2.1242,2.1242,0,2.1067,2.1104,2.1084,2.1113,2.1122,2.1088,2.1125,2.1131,2.1143,2.115,2.1128,2.1171,2.1173,2.1221,2.124,2.1248,2.1256,2.1235,2.1319,2.1327,2.1334,2.1359,2.137,2.1245,2.1245,2.1244,2.1244,0,2.116,2.1185,2.1215,2.1225,2.1238,2.1272,2.1256,2.1271,2.1255,2.1248,2.1286,2.1287,2.1304,2.1314,2.13,2.1359,2.1346,2.1322,2.1284,2.1349,2.1373,2.1382,2.125,2.1249,2.1248,2.1247,0,0,2.1278,2.1275,2.1286,2.1289,2.1292,2.1311,2.1343,2.1358,2.137,2.138,2.1404,2.1434,2.1411,2.1419,2.1405,2.1429,2.1489,2.1401,2.1401,2.1416,2.1552,2.1569,2.158,2.1475,2.1476,2.1478,2.155,0,2.1357,2.141,2.1391,2.1444,2.1466,2.1433,2.146,2.1464,2.1458,2.1475,2.1468,2.1489,2.1458,2.1462,2.1484,2.1478,2.1516,2.1472,2.1496,2.1497,2.1494,2.1593,2.1612,2.168,2.156,2.1561,2.1562,0,2.1456,2.1467,2.1522,2.1518,2.1527,2.1551,2.1562,2.158,2.1583,2.1577,2.1585,2.1565,2.1594,2.1556,2.1595,2.1566,2.1574,2.1573,2.1575,2.1575,2.1533,2.1595,2.1702,2.1712,2.1577,2.1576,2.1575,0,2.1535,2.1563,2.1599,2.1603,2.16,2.1617,2.1617,2.1618,2.1628,2.1638,2.1643,2.1658,2.1665,2.1676,2.166,2.1634,2.17,2.1661,2.1695,2.1695,2.171,2.1709,2.1818,2.1718,2.1718,2.1718,2.1717,0,2.1624,2.1658,2.1634,2.1656,2.1693,2.1671,2.1708,2.1704,2.1705,2.1724,2.1697,2.1717,2.1695,2.1712,2.17,2.1732,2.1737,2.1731,2.1728,2.1733,2.1734,2.1738,2.1732,2.172,2.172,2.1719,2.1719,0,2.1718,2.1703,2.1739,2.1732,2.1731,2.1758,2.1752,2.1772,2.1763,2.1788,2.1793,2.1779,2.1797,2.1782,2.1801,2.1792,2.1836,2.1826,2.1834,2.1831,2.1864,2.1861,2.1979,2.1993,2.1885,2.1886,2.1887,0,2.1775,2.18,2.1795,2.1806,2.1806,2.1825,2.1834,2.1813,2.1823,2.1827,2.1846,2.1862,2.1873,2.1904,2.1895,2.1909,2.1898,2.1938,2.19,2.1904,2.1896,2.1894,2.1896,2.1946,2.1947,2.1948,2.1949,0,2.1877,2.1868,2.1881,2.1892,2.1903,2.191,2.1916,2.1926,2.1904,2.1917,2.1935,2.1943,2.1961,2.1976,2.1986,2.1986,2.1963,2.1961,2.1969,2.1975,2.1978,2.1974,2.1854,2.1959,2.1958,2.1957,2.1956,2.1956,2.1953,2.1973,2.1971,2.1987,2.1988,2.1993,2.201,2.2002,2.2016,2.2028,2.2015,2.2036,2.2036,2.2047,2.2049,2.2064,2.2048,2.206,2.2063,2.2066,2.2069,2.1976,2.2066,2.2066,2.2066,2.2066,2.2065,0,2.2052,2.2049,2.2063,2.207,2.2082,2.2059,2.2063,2.2074,2.2093,2.2095,2.2105,2.2125,2.2139,2.2131,2.2142,2.2157,2.2146,2.216,2.2158,2.2158,2.2085,2.2076,2.2168,2.2168,2.2168,2.2168,2.2168,2.2168,2.2105,2.2137,2.2127,2.2158,2.2154,2.2173,2.2177,2.2181,2.2182,2.2204,2.2215,2.2209,2.2207,2.2218,2.2229,2.2226,2.2232,2.2249,2.2242,2.2174,2.2164,2.2154,2.2145,2.225,2.225,2.2314,2.2314,2.2315]}]]